Location: Maccacari
(45.1333°N, 11.1333°E)
Time: 02:51:51
(UTC+00:00)

Vanguard 2 - Pass Details

Date: 24 January 2021
Orbit: 552 x 2938 km, 32.9° (Epoch: 05 March)

Event Time Altitude Azimuth Distance (km) Brightness Sun altitude
Rises 16:42:41 0° 234° (SW) 2,712 12.3 -5.8°
Reaches altitude 10° 16:45:21 10° 213° (SSW) 1,880 10.5 -6.2°
Maximum altitude 16:48:10 18° 170° (S) 1,573 9.3 -6.7°
Drops below altitude 10° 16:51:29 10° 128° (SE) 2,255 9.6 -7.3°
Enters shadow 16:54:54 - 111° (ESE) 3,448 10.4 -7.8°
Sets 16:55:07 0° 110° (ESE) 3,525 - -7.9°
